[[{"header":{"parameterUnit":"m.s-1","parameterCategory":1,"la1":30.2992,"la2":30.254,"lo1":-89.0895,"lo2":-89.0443,"dy":0.0025,"dx":0.0025,"nx":19,"ny":19,"refTime":"2026-04-01T03:00:00:Z","depth":0,"parameterNumber":2,"parameterNumberName":"U-component_of_WINDS"},"data":[0,0,0,-1.6628,-1.6631,-1.677,-1.6771,-1.695,-1.6952,0,0,0,0,0,0,0,0,0,0,0,-1.6586,-1.6587,-1.6628,-1.6632,-1.677,-1.6771,-1.695,-1.6952,0,0,0,0,0,0,0,0,0,0,0,-1.6585,-1.6587,-1.6588,-1.6632,-1.677,-1.6771,-1.695,-1.6845,0,0,0,0,0,0,0,0,0,0,-1.671,-1.6668,-1.6586,-1.6588,-1.6633,-1.677,-1.6771,-1.684,-1.6851,-1.6887,0,-1.6917,0,-1.6937,-1.6964,-1.6964,0,0,0,-1.6633,-1.6659,-1.6697,-1.6588,-1.6634,-1.677,-1.6708,-1.6846,-1.6859,-1.6903,-1.6919,-1.6926,-1.694,-1.6965,-1.6966,-1.7162,-1.7163,0,0,-1.6626,-1.6611,-1.6688,-1.6706,-1.6681,-1.6704,-1.6712,-1.6854,-1.6872,-1.692,-1.693,-1.6943,-1.6966,-1.6968,-1.7161,-1.7162,0,0,0,-1.6602,-1.6605,-1.664,-1.6698,-1.6723,-1.6708,-1.6718,-1.6866,-1.6878,-1.6932,-1.6945,-1.6967,-1.6969,-1.7161,-1.7162,-1.7188,0,0,0,-1.6598,-1.6592,-1.6637,-1.6629,-1.672,-1.6796,-1.6726,-1.6869,-1.6885,-1.6944,-1.6967,-1.6971,-1.716,-1.7161,-1.7185,-1.7203,0,0,0,-1.6577,-1.6589,-1.6608,-1.6628,-1.6687,-1.6794,-1.6814,-1.6873,-1.6893,-1.6965,-1.6972,-1.7159,-1.7161,-1.7183,-1.7199,-1.7251,0,0,0,-1.6552,-1.663,-1.6609,-1.6702,-1.6685,-1.6808,-1.6814,-1.6906,-1.6971,-1.6968,-1.716,-1.7162,-1.7182,-1.7197,-1.7248,-1.7292,-1.7308,0,0,-1.6643,-1.6641,-1.6697,-1.6682,-1.6803,-1.6788,-1.6915,-1.6989,-1.7011,-1.7111,-1.7116,-1.7186,-1.7199,-1.725,-1.7404,-1.7417,0,0,0,-1.6721,-1.6761,-1.6797,-1.6856,-1.6914,-1.6965,-1.7021,-1.7049,-1.7135,-1.7059,-1.7219,-1.7227,-1.7258,-1.728,-1.7291,-1.7318,-1.7171,-1.7171,-1.717,-1.6829,-1.6851,-1.6946,-1.6985,-1.7043,-1.71,-1.715,-1.7198,-1.7204,-1.7242,-1.7272,-1.7362,-1.7387,-1.7395,-1.7424,-1.7296,-1.7296,-1.7296,-1.7296,-1.6965,-1.7026,-1.7032,-1.7126,-1.715,-1.723,-1.7289,-1.7291,-1.7371,-1.7341,-1.737,-1.7336,-1.7409,-1.7435,-1.7299,-1.7298,-1.7298,-1.7298,-1.7298,-1.7039,-1.7072,-1.7103,-1.7192,-1.7259,-1.7297,-1.7373,-1.7392,-1.7411,-1.7439,-1.7474,-1.7474,-1.7476,-1.7454,-1.7454,-1.7455,-1.7455,-1.7455,-1.7455,-1.7104,-1.7138,-1.7198,-1.7266,-1.7307,-1.7364,-1.7423,-1.7465,-1.7517,-1.7526,-1.7526,-1.753,-1.7411,-1.7381,-1.746,-1.746,-1.7459,-1.7458,-1.7458,-1.7235,-1.7209,-1.7302,-1.7343,-1.7425,-1.7491,-1.7514,-1.7598,-1.7636,-1.7673,-1.7671,-1.7579,-1.758,-1.7571,-1.7547,-1.7664,-1.7664,-1.7664,-1.7664,-1.7299,-1.73,-1.74,-1.7465,-1.7531,-1.7561,-1.7669,-1.7716,-1.7761,-1.7786,-1.7771,-1.774,-1.7731,-1.7737,-1.7725,-1.7703,-1.7857,-1.7857,-1.7858,-1.7381,-1.739,-1.7477,-1.7518,-1.7583,-1.764,-1.7742,-1.7818,-1.7864,-1.7866,-1.7806,-1.7798,-1.7748,-1.7731,-1.7732,-1.7713,-1.7672,0,0]},{"header":{"parameterUnit":"m.s-1","parameterCategory":1,"la1":30.2992,"la2":30.254,"lo1":-89.0895,"lo2":-89.0443,"dy":0.0025,"dx":0.0025,"nx":19,"ny":19,"refTime":"2026-04-01T03:00:00:Z","depth":0,"parameterNumber":3,"parameterNumberName":"V-component_of_WINDS"},"data":[0,0,0,4.1136,4.1136,4.1115,4.1114,4.1098,4.1098,0,0,0,0,0,0,0,0,0,0,0,4.115,4.115,4.1136,4.1136,4.1115,4.1114,4.1098,4.1098,0,0,0,0,0,0,0,0,0,0,0,4.115,4.115,4.115,4.1136,4.1115,4.1114,4.1098,4.111,0,0,0,0,0,0,0,0,0,0,4.1129,4.1148,4.115,4.115,4.1136,4.1115,4.1114,4.1111,4.1109,4.1113,0,4.1118,0,4.1108,4.1098,4.1098,0,0,0,4.113,4.1149,4.1138,4.115,4.1136,4.1115,4.1123,4.111,4.1108,4.1111,4.1118,4.1117,4.1108,4.1098,4.1098,4.1141,4.1142,0,0,4.1131,4.1149,4.1139,4.1137,4.1142,4.1123,4.1122,4.1109,4.1117,4.1118,4.1116,4.1108,4.1098,4.1098,4.1141,4.1141,0,0,0,4.1139,4.115,4.1138,4.1138,4.1134,4.1123,4.1121,4.1117,4.1112,4.1116,4.1108,4.1098,4.1098,4.114,4.1141,4.1184,0,0,0,4.1139,4.1155,4.1139,4.115,4.1134,4.1125,4.113,4.1113,4.1111,4.1108,4.1098,4.1098,4.114,4.1141,4.1182,4.1202,0,0,0,4.1149,4.1156,4.1155,4.1151,4.1143,4.1125,4.1119,4.1112,4.1106,4.1098,4.1098,4.1139,4.114,4.118,4.1198,4.1221,0,0,0,4.1164,4.1191,4.1156,4.1184,4.1143,4.1152,4.1119,4.1124,4.1122,4.1098,4.114,4.1141,4.1179,4.1196,4.1219,4.1244,4.1256,0,0,4.1208,4.1197,4.1212,4.118,4.1201,4.1154,4.118,4.116,4.1141,4.1142,4.1143,4.1183,4.1198,4.122,4.1315,4.1324,0,0,0,4.1232,4.1244,4.1245,4.1246,4.1233,4.1224,4.1198,4.1192,4.1192,4.1146,4.1196,4.1204,4.1216,4.1228,4.1236,4.1247,4.1147,4.1146,4.1146,4.1321,4.1299,4.1323,4.1299,4.13,4.1276,4.1275,4.1262,4.1235,4.1248,4.1249,4.1309,4.1323,4.1329,4.1341,4.1259,4.1259,4.1259,4.1259,4.1386,4.14,4.1369,4.1382,4.1359,4.1369,4.1347,4.133,4.1336,4.1305,4.1315,4.1285,4.134,4.1349,4.1262,4.1262,4.1262,4.1261,4.1261,4.1443,4.1446,4.1439,4.144,4.1443,4.1418,4.1427,4.1404,4.1383,4.1392,4.1392,4.1392,4.139,4.1394,4.1394,4.1394,4.1394,4.1395,4.1395,4.1505,4.1496,4.1507,4.1499,4.1498,4.1495,4.1473,4.1471,4.1464,4.1447,4.1447,4.1423,4.135,4.1333,4.1398,4.1397,4.1397,4.1397,4.1396,4.1581,4.1561,4.1579,4.1579,4.1569,4.1576,4.1548,4.1548,4.1544,4.155,4.1524,4.1473,4.1459,4.1452,4.1439,4.1527,4.1527,4.1527,4.1527,4.163,4.1622,4.1637,4.1639,4.1638,4.1616,4.1638,4.1623,4.1604,4.16,4.1584,4.1563,4.1557,4.1547,4.1538,4.1525,4.1634,4.1634,4.1634,4.1677,4.1669,4.1692,4.1675,4.1667,4.1661,4.1682,4.1686,4.1659,4.1638,4.1598,4.1593,4.1559,4.1549,4.1527,4.1513,4.1489,0,0]}]]